﻿測定場所 (Monitoring sites),日付 (Measurement date),時間 (Measurement time),線量率 最大値 (max) μGy/h,線量率 最小値 (min) μGy/h,線量率 平均値 (average) μGy/h,
新宿 (Shinjuku),2017-10-01,23:01～24:00,0.0428,0.0356,0.0391,
新宿 (Shinjuku),2017-10-01,22:01～23:00,0.0421,0.0363,0.0385,
新宿 (Shinjuku),2017-10-01,21:01～22:00,0.0418,0.0362,0.0389,
新宿 (Shinjuku),2017-10-01,20:01～21:00,0.0423,0.0361,0.0392,
新宿 (Shinjuku),2017-10-01,19:01～20:00,0.0420,0.0358,0.0390,
新宿 (Shinjuku),2017-10-01,18:01～19:00,0.0438,0.0360,0.0390,
新宿 (Shinjuku),2017-10-01,17:01～18:00,0.0421,0.0356,0.0387,
新宿 (Shinjuku),2017-10-01,16:01～17:00,0.0415,0.0364,0.0384,
新宿 (Shinjuku),2017-10-01,15:01～16:00,0.0423,0.0364,0.0385,
新宿 (Shinjuku),2017-10-01,14:01～15:00,0.0424,0.0360,0.0387,
新宿 (Shinjuku),2017-10-01,13:01～14:00,0.0424,0.0359,0.0386,
新宿 (Shinjuku),2017-10-01,12:01～13:00,0.0419,0.0358,0.0387,
新宿 (Shinjuku),2017-10-01,11:01～12:00,0.0428,0.0361,0.0390,
新宿 (Shinjuku),2017-10-01,10:01～11:00,0.0428,0.0359,0.0389,
新宿 (Shinjuku),2017-10-01,09:01～10:00,0.0424,0.0366,0.0390,
新宿 (Shinjuku),2017-10-01,08:01～09:00,0.0428,0.0364,0.0396,
新宿 (Shinjuku),2017-10-01,07:01～08:00,0.0442,0.0369,0.0397,
新宿 (Shinjuku),2017-10-01,06:01～07:00,0.0450,0.0365,0.0397,
新宿 (Shinjuku),2017-10-01,05:01～06:00,0.0423,0.0367,0.0396,
新宿 (Shinjuku),2017-10-01,04:01～05:00,0.0449,0.0366,0.0399,
新宿 (Shinjuku),2017-10-01,03:01～04:00,0.0423,0.0364,0.0391,
新宿 (Shinjuku),2017-10-01,02:01～03:00,0.0440,0.0361,0.0391,
新宿 (Shinjuku),2017-10-01,01:01～02:00,0.0437,0.0369,0.0399,
新宿 (Shinjuku),2017-10-01,00:01～01:00,0.0435,0.0356,0.0391,
新宿 (Shinjuku),2017-09-30,23:01～24:00,0.0440,0.0362,0.0394,
新宿 (Shinjuku),2017-09-30,22:01～23:00,0.0437,0.0358,0.0394,
新宿 (Shinjuku),2017-09-30,21:01～22:00,0.0424,0.0366,0.0393,
新宿 (Shinjuku),2017-09-30,20:01～21:00,0.0421,0.0360,0.0388,
新宿 (Shinjuku),2017-09-30,19:01～20:00,0.0435,0.0362,0.0389,
新宿 (Shinjuku),2017-09-30,18:01～19:00,0.0432,0.0355,0.0387,
新宿 (Shinjuku),2017-09-30,17:01～18:00,0.0425,0.0359,0.0385,
新宿 (Shinjuku),2017-09-30,16:01～17:00,0.0427,0.0357,0.0387,
新宿 (Shinjuku),2017-09-30,15:01～16:00,0.0427,0.0355,0.0391,
新宿 (Shinjuku),2017-09-30,14:01～15:00,0.0421,0.0354,0.0387,
新宿 (Shinjuku),2017-09-30,13:01～14:00,0.0425,0.0359,0.0387,
新宿 (Shinjuku),2017-09-30,12:01～13:00,0.0431,0.0360,0.0386,
新宿 (Shinjuku),2017-09-30,11:01～12:00,0.0432,0.0365,0.0396,
新宿 (Shinjuku),2017-09-30,10:01～11:00,0.0428,0.0362,0.0388,
新宿 (Shinjuku),2017-09-30,09:01～10:00,0.0440,0.0366,0.0399,
新宿 (Shinjuku),2017-09-30,08:01～09:00,0.0440,0.0363,0.0394,
新宿 (Shinjuku),2017-09-30,07:01～08:00,0.0445,0.0361,0.0395,
新宿 (Shinjuku),2017-09-30,06:01～07:00,0.0438,0.0360,0.0390,
新宿 (Shinjuku),2017-09-30,05:01～06:00,0.0429,0.0361,0.0397,
新宿 (Shinjuku),2017-09-30,04:01～05:00,0.0435,0.0361,0.0390,
新宿 (Shinjuku),2017-09-30,03:01～04:00,0.0439,0.0367,0.0396,
新宿 (Shinjuku),2017-09-30,02:01～03:00,0.0426,0.0360,0.0394,
新宿 (Shinjuku),2017-09-30,01:01～02:00,0.0436,0.0366,0.0392,
新宿 (Shinjuku),2017-09-30,00:01～01:00,0.0426,0.0368,0.0393,
新宿 (Shinjuku),2017-09-29,23:01～24:00,0.0418,0.0360,0.0386,
新宿 (Shinjuku),2017-09-29,22:01～23:00,0.0429,0.0355,0.0387,
新宿 (Shinjuku),2017-09-29,21:01～22:00,0.0433,0.0359,0.0386,
新宿 (Shinjuku),2017-09-29,20:01～21:00,0.0437,0.0359,0.0387,
新宿 (Shinjuku),2017-09-29,19:01～20:00,0.0410,0.0359,0.0382,
新宿 (Shinjuku),2017-09-29,18:01～19:00,0.0420,0.0360,0.0385,
新宿 (Shinjuku),2017-09-29,17:01～18:00,0.0416,0.0356,0.0383,
新宿 (Shinjuku),2017-09-29,16:01～17:00,0.0432,0.0356,0.0381,
新宿 (Shinjuku),2017-09-29,15:01～16:00,0.0446,0.0365,0.0382,
新宿 (Shinjuku),2017-09-29,14:01～15:00,0.0409,0.0355,0.0381,
新宿 (Shinjuku),2017-09-29,13:01～14:00,0.0416,0.0342,0.0383,
新宿 (Shinjuku),2017-09-29,12:01～13:00,0.0410,0.0356,0.0378,
新宿 (Shinjuku),2017-09-29,11:01～12:00,0.0429,0.0359,0.0385,
新宿 (Shinjuku),2017-09-29,10:01～11:00,0.0427,0.0360,0.0387,
新宿 (Shinjuku),2017-09-29,09:01～10:00,0.0420,0.0357,0.0386,
新宿 (Shinjuku),2017-09-29,08:01～09:00,0.0425,0.0354,0.0390,
新宿 (Shinjuku),2017-09-29,07:01～08:00,0.0430,0.0357,0.0388,
新宿 (Shinjuku),2017-09-29,06:01～07:00,0.0424,0.0359,0.0384,
新宿 (Shinjuku),2017-09-29,05:01～06:00,0.0414,0.0358,0.0386,
新宿 (Shinjuku),2017-09-29,04:01～05:00,0.0417,0.0358,0.0381,
新宿 (Shinjuku),2017-09-29,03:01～04:00,0.0416,0.0360,0.0384,
新宿 (Shinjuku),2017-09-29,02:01～03:00,0.0416,0.0347,0.0380,
新宿 (Shinjuku),2017-09-29,01:01～02:00,0.0414,0.0360,0.0384,
新宿 (Shinjuku),2017-09-29,00:01～01:00,0.0425,0.0356,0.0385,
新宿 (Shinjuku),2017-09-28,23:01～24:00,0.0437,0.0364,0.0392,
新宿 (Shinjuku),2017-09-28,22:01～23:00,0.0452,0.0367,0.0411,
新宿 (Shinjuku),2017-09-28,21:01～22:00,0.0509,0.0407,0.0443,
新宿 (Shinjuku),2017-09-28,20:01～21:00,0.0563,0.0476,0.0512,
新宿 (Shinjuku),2017-09-28,19:01～20:00,0.0612,0.0496,0.0554,
新宿 (Shinjuku),2017-09-28,18:01～19:00,0.0694,0.0600,0.0642,
新宿 (Shinjuku),2017-09-28,17:01～18:00,0.0718,0.0526,0.0617,
新宿 (Shinjuku),2017-09-28,16:01～17:00,0.0563,0.0382,0.0442,
新宿 (Shinjuku),2017-09-28,15:01～16:00,0.0438,0.0363,0.0398,
新宿 (Shinjuku),2017-09-28,14:01～15:00,0.0425,0.0359,0.0392,
新宿 (Shinjuku),2017-09-28,13:01～14:00,0.0415,0.0364,0.0386,
新宿 (Shinjuku),2017-09-28,12:01～13:00,0.0420,0.0364,0.0388,
新宿 (Shinjuku),2017-09-28,11:01～12:00,0.0426,0.0357,0.0385,
新宿 (Shinjuku),2017-09-28,10:01～11:00,0.0444,0.0363,0.0395,
新宿 (Shinjuku),2017-09-28,09:01～10:00,0.0455,0.0371,0.0408,
新宿 (Shinjuku),2017-09-28,08:01～09:00,0.0479,0.0416,0.0443,
新宿 (Shinjuku),2017-09-28,07:01～08:00,0.0524,0.0424,0.0466,
新宿 (Shinjuku),2017-09-28,06:01～07:00,0.0524,0.0427,0.0476,
新宿 (Shinjuku),2017-09-28,05:01～06:00,0.0484,0.0404,0.0443,
新宿 (Shinjuku),2017-09-28,04:01～05:00,0.0498,0.0412,0.0449,
新宿 (Shinjuku),2017-09-28,03:01～04:00,0.0484,0.0389,0.0437,
新宿 (Shinjuku),2017-09-28,02:01～03:00,0.0515,0.0419,0.0465,
新宿 (Shinjuku),2017-09-28,01:01～02:00,0.0627,0.0484,0.0557,
新宿 (Shinjuku),2017-09-28,00:01～01:00,0.0626,0.0467,0.0548,
新宿 (Shinjuku),2017-09-27,23:01～24:00,0.0520,0.0386,0.0450,
新宿 (Shinjuku),2017-09-27,22:01～23:00,0.0436,0.0366,0.0395,
新宿 (Shinjuku),2017-09-27,21:01～22:00,0.0431,0.0365,0.0392,
新宿 (Shinjuku),2017-09-27,20:01～21:00,0.0422,0.0358,0.0391,
新宿 (Shinjuku),2017-09-27,19:01～20:00,0.0425,0.0365,0.0388,
新宿 (Shinjuku),2017-09-27,18:01～19:00,0.0406,0.0355,0.0378,
新宿 (Shinjuku),2017-09-27,17:01～18:00,0.0410,0.0359,0.0378,
新宿 (Shinjuku),2017-09-27,16:01～17:00,0.0418,0.0358,0.0387,
新宿 (Shinjuku),2017-09-27,15:01～16:00,0.0416,0.0353,0.0383,
新宿 (Shinjuku),2017-09-27,14:01～15:00,0.0411,0.0354,0.0379,
新宿 (Shinjuku),2017-09-27,13:01～14:00,0.0421,0.0362,0.0385,
新宿 (Shinjuku),2017-09-27,12:01～13:00,0.0418,0.0352,0.0384,
新宿 (Shinjuku),2017-09-27,11:01～12:00,0.0409,0.0349,0.0384,
新宿 (Shinjuku),2017-09-27,10:01～11:00,0.0421,0.0357,0.0383,
新宿 (Shinjuku),2017-09-27,09:01～10:00,0.0426,0.0362,0.0388,
新宿 (Shinjuku),2017-09-27,08:01～09:00,0.0422,0.0364,0.0386,
新宿 (Shinjuku),2017-09-27,07:01～08:00,0.0429,0.0362,0.0391,
新宿 (Shinjuku),2017-09-27,06:01～07:00,0.0455,0.0358,0.0397,
新宿 (Shinjuku),2017-09-27,05:01～06:00,0.0445,0.0365,0.0406,
新宿 (Shinjuku),2017-09-27,04:01～05:00,0.0418,0.0363,0.0389,
新宿 (Shinjuku),2017-09-27,03:01～04:00,0.0422,0.0356,0.0389,
新宿 (Shinjuku),2017-09-27,02:01～03:00,0.0424,0.0361,0.0388,
新宿 (Shinjuku),2017-09-27,01:01～02:00,0.0424,0.0362,0.0388,
新宿 (Shinjuku),2017-09-27,00:01～01:00,0.0413,0.0361,0.0387,
新宿 (Shinjuku),2017-09-26,23:01～24:00,0.0417,0.0359,0.0383,
新宿 (Shinjuku),2017-09-26,22:01～23:00,0.0424,0.0363,0.0386,
新宿 (Shinjuku),2017-09-26,21:01～22:00,0.0427,0.0356,0.0384,
新宿 (Shinjuku),2017-09-26,20:01～21:00,0.0423,0.0360,0.0385,
新宿 (Shinjuku),2017-09-26,19:01～20:00,0.0421,0.0358,0.0385,
新宿 (Shinjuku),2017-09-26,18:01～19:00,0.0423,0.0362,0.0383,
新宿 (Shinjuku),2017-09-26,17:01～18:00,0.0418,0.0350,0.0384,
新宿 (Shinjuku),2017-09-26,16:01～17:00,0.0422,0.0358,0.0385,
新宿 (Shinjuku),2017-09-26,15:01～16:00,0.0433,0.0353,0.0389,
新宿 (Shinjuku),2017-09-26,14:01～15:00,0.0427,0.0363,0.0389,
新宿 (Shinjuku),2017-09-26,13:01～14:00,0.0436,0.0359,0.0390,
新宿 (Shinjuku),2017-09-26,12:01～13:00,0.0430,0.0356,0.0387,
新宿 (Shinjuku),2017-09-26,11:01～12:00,0.0415,0.0358,0.0387,
新宿 (Shinjuku),2017-09-26,10:01～11:00,0.0424,0.0363,0.0390,
新宿 (Shinjuku),2017-09-26,09:01～10:00,0.0425,0.0365,0.0388,
新宿 (Shinjuku),2017-09-26,08:01～09:00,0.0437,0.0357,0.0392,
新宿 (Shinjuku),2017-09-26,07:01～08:00,0.0418,0.0362,0.0388,
新宿 (Shinjuku),2017-09-26,06:01～07:00,0.0431,0.0360,0.0390,
新宿 (Shinjuku),2017-09-26,05:01～06:00,0.0420,0.0359,0.0386,
新宿 (Shinjuku),2017-09-26,04:01～05:00,0.0429,0.0359,0.0390,
新宿 (Shinjuku),2017-09-26,03:01～04:00,0.0430,0.0361,0.0389,
新宿 (Shinjuku),2017-09-26,02:01～03:00,0.0419,0.0358,0.0388,
新宿 (Shinjuku),2017-09-26,01:01～02:00,0.0427,0.0366,0.0387,
新宿 (Shinjuku),2017-09-26,00:01～01:00,0.0419,0.0363,0.0384,
新宿 (Shinjuku),2017-09-25,23:01～24:00,0.0426,0.0361,0.0386,
新宿 (Shinjuku),2017-09-25,22:01～23:00,0.0422,0.0361,0.0384,
新宿 (Shinjuku),2017-09-25,21:01～22:00,0.0421,0.0349,0.0381,
新宿 (Shinjuku),2017-09-25,20:01～21:00,0.0428,0.0362,0.0385,
新宿 (Shinjuku),2017-09-25,19:01～20:00,0.0420,0.0356,0.0382,
新宿 (Shinjuku),2017-09-25,18:01～19:00,0.0415,0.0361,0.0380,
新宿 (Shinjuku),2017-09-25,17:01～18:00,0.0429,0.0359,0.0388,
新宿 (Shinjuku),2017-09-25,16:01～17:00,0.0422,0.0355,0.0383,
新宿 (Shinjuku),2017-09-25,15:01～16:00,0.0420,0.0358,0.0384,
新宿 (Shinjuku),2017-09-25,14:01～15:00,0.0428,0.0359,0.0384,
新宿 (Shinjuku),2017-09-25,13:01～14:00,0.0426,0.0358,0.0384,
新宿 (Shinjuku),2017-09-25,12:01～13:00,0.0417,0.0361,0.0385,
新宿 (Shinjuku),2017-09-25,11:01～12:00,0.0409,0.0362,0.0387,
新宿 (Shinjuku),2017-09-25,10:01～11:00,0.0424,0.0361,0.0386,
新宿 (Shinjuku),2017-09-25,09:01～10:00,0.0419,0.0361,0.0389,
新宿 (Shinjuku),2017-09-25,08:01～09:00,0.0425,0.0361,0.0392,
新宿 (Shinjuku),2017-09-25,07:01～08:00,0.0427,0.0358,0.0392,
新宿 (Shinjuku),2017-09-25,06:01～07:00,0.0451,0.0365,0.0395,
新宿 (Shinjuku),2017-09-25,05:01～06:00,0.0429,0.0361,0.0390,
新宿 (Shinjuku),2017-09-25,04:01～05:00,0.0437,0.0364,0.0392,
新宿 (Shinjuku),2017-09-25,03:01～04:00,0.0418,0.0362,0.0389,
新宿 (Shinjuku),2017-09-25,02:01～03:00,0.0431,0.0357,0.0392,
新宿 (Shinjuku),2017-09-25,01:01～02:00,0.0435,0.0359,0.0388,
新宿 (Shinjuku),2017-09-25,00:01～01:00,0.0418,0.0360,0.0385,
